Current weather by "City, St" or "zip code"  
 
Advertise Here

Current Conditions: Clayton Lake, ME

NULL


23.0 F

Last Updated on Jan 18 2021, 4:16 am EST
Humidity: 87%
Wind Speed: 6.9 G 20.7 mph
Barometer 29.32 in
Dewpoint: 19.8 F
Visibility: NULL mi
Precip: Trace
Heat Index: NA
Wind Chill: 15 F
Current conditions at:

Clayton Lake, ME (K40B)

Lat: 46.61667 Lon: 69.53333

Local Radar Image active severe weather and emergency alerts image image weather storm and storm spotter reports image weather observation monitoring service image
Local
Radar
Active
Alerts
Storm Reports Obs
Monitoring

Sign-up For Email & Text Message Weather Alert Notification Services


Advertise Here

Observation History for Clayton Lake, ME


Time Wind
(mph)
Vis
(mi)
Weather Precip (in) Temperature (F) Relative
Humidity
Wind
Chill
(F)
Heat
Index
(F)
Pressure
Air Dwpt altimeter
(in)
sea level
(mb)
Rmks
4:16 am EST 6.9 G 20.7 NULL NULL Trace 23.0 19.8 87% 15 NA 29.32 995.0
3:16 am EST SW 6.9 G 20.7 NULL NULL -- 24.0 21.0 88% 16 NA 29.32 994.9
2:16 am EST SW 8.1 G 18.4 NULL NULL -- 25.0 21.6 86% 16 NA 29.31 994.5
1:16 am EST 6.9 G 17.3 NULL NULL -- 26.0 22.5 85% 18 NA 29.30 994.2
12:16 am EST 6.9 G 16.1 NULL NULL -- 27.0 23.5 87% 20 NA 29.28 993.5
11:16 pm EST 6.9 G 17.3 NULL NULL -- 27.0 24.3 88% 20 NA 29.26 992.9
10:16 pm EST SW 6.9 G 15.0 NULL NULL -- 28.0 25.7 93% 21 NA 29.24 992.1
9:16 pm EST 3.5 G 15.0 NULL NULL -- 27.0 26.8 98% NA NA 29.21 991.3
8:16 pm EST SW 8.1 G 15.0 NULL NULL -- 27.0 26.8 100% 19 NA 29.19 990.4
6:16 pm EST SW 8.1 G 13.8 NULL NULL -- 28.0 % 20 NA 29.15 989.2
5:16 pm EST 4.6 G 20.7 NULL NULL -- 28.0 % 23 NA 29.13 988.4
4:16 pm EST 5.8 G 17.3 NULL NULL -- 28.0 % 22 NA 29.11 987.7
3:16 pm EST 4.6 G 12.7 NULL NULL -- 28.0 % 23 NA 29.08 986.7
12:16 pm EST 4.6 G 16.1 NULL NULL -- 30.0 % 25 NA 29.02 984.7
11:16 am EST N 0.0 NULL NULL -- 30.0 % NA NA 29.01 984.4
10:16 am EST 3.5 G 12.7 NULL NULL -- 30.0 % NA NA 29.01 984.5
9:16 am EST N 0.0 NULL NULL -- 30.0 % NA NA 29.01 984.4
8:19 am EST 2.3 NULL NULL -- 28.0 % NA NA 29.01 984.3
7:16 am EST N 0.0 NULL NULL 00.01 28.0 % NA NA 29.01 984.4
6:16 am EST N 0.0 NULL NULL -- 28.0 % NA NA 28.99 983.8

Regional Weather Observation


Caribou, Caribou Municipal Airport, ME (KCAR)

Overcast
28.0 F

Presque Isle, ME (KPQI)

Light Snow
27.0 F

Frenchville, Northern Aroostook Regional Airport, ME (KFVE)

Overcast
25.0 F

Greenville, ME (KGNR)

NULL
23.0 F

Millinocket, Millinocket Municipal Airport, ME (KMLT)

Overcast
29.0 F

Houlton, Houlton International Airport, ME (KHUL)

Overcast
29.0 F